This is the latest recevied weather packets stored in our database for station/object KB4NWJ. If no packets are shown the sender has not sent any weather packets the latest 10 day(s).
| Time | Temp. | Humidity | Pressure | Rain* | Wind** | Luminosity | Snow |
|---|---|---|---|---|---|---|---|
| 1777378016 | 15.56° C | 88% | 1023.2 hPa | 0 mm | - | 3 W/m² | - |
| 1777377709 | 15.56° C | 88% | 1021.9 hPa | 0 mm | - | 23 W/m² | - |
| 1777377405 | 15.56° C | 87% | 1021.8 hPa | 0 mm | - | 24 W/m² | - |
| 1777377102 | 15.56° C | 87% | 1021.7 hPa | 0 mm | - | 31 W/m² | - |
| 1777376798 | 15.56° C | 87% | 1021.2 hPa | 0 mm | - | 23 W/m² | - |
| 1777376497 | 15° C | 87% | 1021 hPa | 0 mm | - | 18 W/m² | - |
| 1777376192 | 15° C | 87% | 1020.8 hPa | 0 mm | - | 19 W/m² | - |
| 1777375887 | 15° C | 87% | 1020.6 hPa | 0 mm | - | 16 W/m² | - |
| 1777375587 | 15.56° C | 87% | 1020.7 hPa | 0 mm | - | 9 W/m² | - |
| 1777375283 | 15° C | 86% | 1020.6 hPa | 0 mm | - | 6 W/m² | - |
| 1777374979 | 15° C | 86% | 1020.8 hPa | 0 mm | - | 4 W/m² | - |
| 1777374675 | 15° C | 86% | 1020.5 hPa | 0 mm | - | 3 W/m² | - |
| 1777374371 | 15.56° C | 86% | 1020.3 hPa | 0 mm | - | 1 W/m² | - |
| 1777374068 | 15.56° C | 86% | 1020.2 hPa | 0 mm | - | 0 W/m² | - |
| 1777373764 | 15.56° C | 85% | 1020.3 hPa | 0 mm | - | 0 W/m² | - |
| 1777373462 | 15.56° C | 86% | 1020.5 hPa | 0 mm | - | 0 W/m² | - |
| 1777373156 | 15° C | 85% | 1020.5 hPa | 0 mm | - | 0 W/m² | - |
| 1777372852 | 15° C | 86% | 1020 hPa | 0 mm | - | 0 W/m² | - |
| 1777372547 | 15° C | 85% | 1019.1 hPa | 0 mm | - | 0 W/m² | - |
| 1777372246 | 15.56° C | 85% | 1019.5 hPa | 0 mm | - | 0 W/m² | - |
| 1777371945 | 15.56° C | 84% | 1019.8 hPa | 0 mm | - | 0 W/m² | - |
| 1777371642 | 15.56° C | 84% | 1019.8 hPa | 0 mm | - | 0 W/m² | - |
| 1777371339 | 15.56° C | 84% | 1019.9 hPa | 0 mm | - | 0 W/m² | - |
| 1777371035 | 15.56° C | 84% | 1020.1 hPa | 0 mm | - | 0 W/m² | - |
| 1777370731 | 15.56° C | 83% | 1020.3 hPa | 0 mm | - | 0 W/m² | - |
* Rain latest hour (hover to see other rain measurements)
** Current wind speed in m/s (hover to see current wind gust speed)